Location: Bonningues
(50.7927°N, 2.0150°E)
Time: 16:33:15
(UTC+00:00)

Cosmos 1356 - Pass Details

Date: 08 August 2020
Orbit: 444 x 445 km, 81.1° (Epoch: 19 September)

Event Time Altitude Azimuth Distance (km) Brightness Sun altitude
Exits shadow 22:41:38 43° 59° (ENE) 642 4.2 -21.4°
Drops below altitude 10° 22:44:20 10° 22° (NNE) 1,580 6.8 -21.5°
Sets 22:46:26 0° 17° (NNE) 2,456 8.0 -21.6°
